ACA226 CYVR-CYYC

Flight info

Callsign ACA226
Flight time N/A
Altitude 35000
Route YVR4 CILLI Q983 AMITO IGVEP7
Aircraft A21N/M-SDE2E3FGHIRWXY/LB1

Departure

Time N/A
Airport Vancouver International Airport (CYVR)

Arrival

Time 2026-05-05 07:51
Airport Calgary International Airport (CYYC)
Time Latitude Longitude Altitude Speed Heading
2026-05-05 07:40 50.89448 -114.11082 6559 ft 246 kts 63°
2026-05-05 07:41 50.90128 -114.08643 6530 ft 239 kts 63°
2026-05-05 07:41 50.90795 -114.06261 6518 ft 239 kts 63°
2026-05-05 07:41 50.91442 -114.03952 6519 ft 239 kts 63°
2026-05-05 07:41 50.92261 -114.01661 6511 ft 235 kts 48°
2026-05-05 07:42 50.93549 -114.00159 6511 ft 230 kts 22°
2026-05-05 07:42 50.95045 -113.99386 6516 ft 218 kts 12°
2026-05-05 07:42 50.96461 -113.99075 6494 ft 193 kts
2026-05-05 07:42 50.97742 -113.99057 6486 ft 177 kts 359°
2026-05-05 07:43 50.98963 -113.99064 6502 ft 175 kts 359°
2026-05-05 07:43 51.00183 -113.98783 6495 ft 188 kts 24°
2026-05-05 07:43 51.01329 -113.97496 6517 ft 217 kts 39°
2026-05-05 07:43 51.02459 -113.95825 6491 ft 232 kts 41°
2026-05-05 07:44 51.03629 -113.94033 6491 ft 234 kts 41°
2026-05-05 07:44 51.04744 -113.92220 6488 ft 236 kts 51°
2026-05-05 07:44 51.05349 -113.89797 6495 ft 241 kts 81°
2026-05-05 07:44 51.05110 -113.87157 6496 ft 247 kts 112°
2026-05-05 07:45 51.04113 -113.84922 6510 ft 251 kts 131°
2026-05-05 07:45 51.02893 -113.82932 6508 ft 252 kts 134°
2026-05-05 07:45 51.01401 -113.81513 6510 ft 253 kts 165°
2026-05-05 07:45 50.99669 -113.81452 6511 ft 250 kts 197°
2026-05-05 07:46 50.98175 -113.82759 6517 ft 246 kts 227°
2026-05-05 07:46 50.97103 -113.84847 6518 ft 244 kts 240°
2026-05-05 07:46 50.96264 -113.87188 6511 ft 243 kts 246°
2026-05-05 07:46 50.95556 -113.89578 6515 ft 230 kts 250°
2026-05-05 07:47 50.95184 -113.91870 6495 ft 201 kts 268°
2026-05-05 07:47 50.95217 -113.93965 6494 ft 184 kts 283°
2026-05-05 07:47 50.95592 -113.95884 6516 ft 186 kts 300°
2026-05-05 07:47 50.96346 -113.97535 6512 ft 185 kts 319°
2026-05-05 07:48 50.97425 -113.98603 6412 ft 183 kts 340°
2026-05-05 07:48 50.98637 -113.99022 6158 ft 177 kts 356°
2026-05-05 07:48 50.99864 -113.99047 5910 ft 176 kts
2026-05-05 07:48 51.01089 -113.99025 5670 ft 176 kts 359°
2026-05-05 07:49 51.02285 -113.99028 5422 ft 166 kts 360°
2026-05-05 07:49 51.03401 -113.99028 5188 ft 156 kts
2026-05-05 07:49 51.04476 -113.99015 4993 ft 156 kts
2026-05-05 07:49 51.05561 -113.98982 4790 ft 156 kts
2026-05-05 07:50 51.06647 -113.98967 4547 ft 156 kts 359°
2026-05-05 07:50 51.07728 -113.99017 4254 ft 155 kts 359°
2026-05-05 07:50 51.08800 -113.99068 4040 ft 154 kts
2026-05-05 07:50 51.09871 -113.99069 3809 ft 153 kts
2026-05-05 07:51 51.10936 -113.99045 3637 ft 153 kts
2026-05-05 07:51 51.11946 -113.99029 3565 ft 130 kts 359°
2026-05-05 07:51 51.12660 -113.99033 3564 ft 80 kts
2026-05-05 07:51 51.13040 -113.99135 3563 ft 35 kts 329°
2026-05-05 07:52 51.13086 -113.99307 3569 ft 13 kts 204°
2026-05-05 07:52 51.13004 -113.99307 3561 ft 11 kts 176°
2026-05-05 07:52 51.12928 -113.99298 3563 ft 11 kts 176°
2026-05-05 07:52 51.12849 -113.99295 3566 ft 12 kts 179°
2026-05-05 07:53 51.12842 -113.99295 3561 ft 0 kts 179°
2026-05-05 07:53 51.12841 -113.99295 3561 ft 0 kts 179°
2026-05-05 07:53 51.12824 -113.99295 3560 ft 5 kts 183°
2026-05-05 07:54 51.12778 -113.99302 3562 ft 9 kts 181°
2026-05-05 07:54 51.12712 -113.99315 3566 ft 9 kts 210°
2026-05-05 07:54 51.12705 -113.99367 3567 ft 6 kts 271°
2026-05-05 07:54 51.12705 -113.99475 3566 ft 14 kts 269°
2026-05-05 07:55 51.12705 -113.99672 3563 ft 22 kts 268°
2026-05-05 07:55 51.12705 -113.99945 3569 ft 27 kts 270°
2026-05-05 07:55 51.12703 -114.00232 3569 ft 25 kts 270°
2026-05-05 07:55 51.12703 -114.00503 3569 ft 24 kts 270°
2026-05-05 07:56 51.12729 -114.00647 3567 ft 4 kts
2026-05-05 07:56 51.12756 -114.00641 3563 ft 3 kts 351°
2026-05-05 07:56 51.12764 -114.00657 3561 ft 2 kts 294°
2026-05-05 07:56 51.12775 -114.00684 3563 ft 5 kts 315°
2026-05-05 07:57 51.12809 -114.00732 3564 ft 7 kts 320°
2026-05-05 07:57 51.12819 -114.00745 3563 ft 0 kts 320°
2026-05-05 07:57 51.12821 -114.00748 3563 ft 0 kts 320°
2026-05-05 07:57 51.12822 -114.00750 3563 ft 0 kts 320°